Time,TemperatureF,DewpointF,PressureIn,WindDirection,WindDirectionDegrees,WindSpeedMPH,WindSpeedGustMPH,Humidity,HourlyPrecipIn,Conditions,Clouds,dailyrainin,SoftwareType,DateUTC
2013-04-21 00:00:00,23.0,22.0,-100.00,WNW,284,18.0,28.0,97,-99.99,,,-99.99,,2013-04-21 07:00:00,
2013-04-21 01:00:00,21.0,20.0,-100.00,West,281,20.0,28.0,97,-99.99,,,-99.99,,2013-04-21 08:00:00,
2013-04-21 02:00:00,23.0,22.0,-100.00,West,280,21.0,32.0,97,-99.99,,,-99.99,,2013-04-21 09:00:00,
2013-04-21 03:00:00,23.0,22.0,-100.00,WNW,283,22.0,30.0,97,-99.99,,,-99.99,,2013-04-21 10:00:00,
2013-04-21 04:00:00,22.0,21.0,-100.00,West,272,23.0,35.0,96,-99.99,,,-99.99,,2013-04-21 11:00:00,
2013-04-21 05:00:00,21.0,20.0,-100.00,West,265,20.0,27.0,97,-99.99,,,-99.99,,2013-04-21 12:00:00,
2013-04-21 06:00:00,22.0,21.0,-100.00,West,262,23.0,30.0,96,-99.99,,,-99.99,,2013-04-21 13:00:00,
2013-04-21 07:00:00,22.0,21.0,-100.00,West,261,20.0,27.0,96,-99.99,,,-99.99,,2013-04-21 14:00:00,
2013-04-21 08:00:00,23.0,22.0,-100.00,West,260,13.0,21.0,96,-99.99,,,-99.99,,2013-04-21 15:00:00,
2013-04-21 09:00:00,25.0,24.0,-100.00,West,260,13.0,18.0,96,-99.99,,,-99.99,,2013-04-21 16:00:00,
2013-04-21 10:00:00,27.0,26.0,-100.00,WNW,285,12.0,18.0,94,-99.99,,,-99.99,,2013-04-21 17:00:00,
2013-04-21 11:00:00,28.0,27.0,-100.00,WSW,252,12.0,16.0,95,-99.99,,,-99.99,,2013-04-21 18:00:00,
2013-04-21 12:00:00,31.0,29.0,-100.00,WNW,297,15.0,23.0,94,-99.99,,,-99.99,,2013-04-21 19:00:00,
2013-04-21 13:00:00,30.0,29.0,-100.00,West,281,13.0,20.0,95,-99.99,,,-99.99,,2013-04-21 20:00:00,
2013-04-21 14:00:00,31.0,30.0,-100.00,SW,222,18.0,28.0,95,-99.99,,,-99.99,,2013-04-21 21:00:00,
2013-04-21 15:00:00,32.0,31.0,-100.00,West,268,20.0,32.0,95,-99.99,,,-99.99,,2013-04-21 22:00:00,
2013-04-21 16:00:00,29.0,28.0,-100.00,WNW,282,20.0,28.0,96,-99.99,,,-99.99,,2013-04-21 23:00:00,
2013-04-21 17:00:00,28.0,27.0,-100.00,West,269,21.0,30.0,96,-99.99,,,-99.99,,2013-04-22 00:00:00,
2013-04-21 18:00:00,25.0,24.0,-100.00,NNW,340,18.0,28.0,97,-99.99,,,-99.99,,2013-04-22 01:00:00,
2013-04-21 19:00:00,22.0,22.0,-100.00,NNE,15,14.0,27.0,98,-99.99,,,-99.99,,2013-04-22 02:00:00,
2013-04-21 20:00:00,20.0,20.0,-100.00,West,279,15.0,23.0,98,-99.99,,,-99.99,,2013-04-22 03:00:00,
2013-04-21 21:00:00,21.0,20.0,-100.00,WNW,293,14.0,21.0,97,-99.99,,,-99.99,,2013-04-22 04:00:00,
2013-04-21 22:00:00,20.0,19.0,-100.00,NW,311,12.0,18.0,97,-99.99,,,-99.99,,2013-04-22 05:00:00,
2013-04-21 23:00:00,20.0,19.0,-100.00,NW,308,12.0,18.0,97,-99.99,,,-99.99,,2013-04-22 06:00:00,